Location: Baia Mare
(47.6567°N, 23.5850°E)
Time: 23:23:55
(UTC+03:00)

ISS - Pass Details

Date: 08 September 2019
Orbit: 411 x 421 km, 51.6° (Epoch: 19 September)

Event Time Altitude Azimuth Distance (km) Brightness Sun altitude
Exits shadow 04:09:46 31° 41° (NE) 750 -1.9 -25.2°
Drops below altitude 10° 04:11:52 10° 65° (ENE) 1,493 0.0 -25.0°
Sets 04:14:02 0° 71° (ENE) 2,359 1.1 -24.7°
